Location: Melque
(41.0517°N, 4.4694°W)
Time: 17:51:39
(UTC+00:00)

Meteor 1-20 Rocket - Visible Passes

Search period start: 07 March 2026 00:00
Search period end: 17 March 2026 00:00
Orbit: 818 x 890 km, 81.2° (Epoch: 7 March)

Date Brightness Start Highest point End Pass type
(mag) Time Alt. Az. Time Alt. Az. Time Alt. Az.
7 Mar 6.9 05:17:31 10° NNE 05:21:44 21° ENE 05:25:53 10° ESE visible
7 Mar 5.5 20:08:48 10° SSW 20:14:18 44° WNW 20:19:52 10° N visible
8 Mar 7.0 05:06:38 10° NNE 05:10:40 19° ENE 05:14:39 10° ESE visible
8 Mar 5.4 19:57:42 10° SSW 20:03:16 46° WNW 20:08:53 10° N visible
9 Mar 7.1 04:55:45 10° NNE 04:59:36 18° ENE 05:03:23 10° ESE visible
9 Mar 5.3 19:46:37 10° SSW 19:52:14 49° WNW 19:57:55 10° N visible
10 Mar 7.1 04:44:53 10° NNE 04:48:32 17° ENE 04:52:07 10° ESE visible
10 Mar 5.2 19:35:32 10° SSW 19:41:12 53° WNW 19:46:55 10° N visible
11 Mar 7.2 04:34:02 10° NNE 04:37:27 16° ENE 04:40:49 10° ESE visible
11 Mar 5.1 19:24:28 10° SSW 19:30:10 56° WNW 19:35:55 10° N visible
12 Mar 7.2 04:23:13 10° NNE 04:26:22 15° ENE 04:29:30 10° E visible
12 Mar 4.2 06:04:21 10° NNW 06:10:03 75° W 06:15:36 10° S visible
12 Mar 5.0 19:13:24 10° SSW 19:19:09 60° WNW 19:24:56 10° N visible
13 Mar 7.3 04:12:25 10° NNE 04:15:18 14° ENE 04:18:08 10° E visible
13 Mar 4.2 05:53:20 10° NNW 05:59:02 80° W 06:04:35 10° S visible
13 Mar 4.9 19:02:21 10° SSW 19:08:06 64° W 19:13:55 10° N visible
14 Mar 7.3 04:01:38 10° NE 04:04:13 13° ENE 04:06:45 10° E visible
14 Mar 4.2 05:42:19 10° N 05:48:01 85° W 05:53:34 10° S visible
14 Mar 4.8 18:51:18 10° SSW 18:57:06 68° WNW 19:02:55 10° N visible
15 Mar 7.4 03:50:56 10° NE 03:53:07 12° ENE 03:55:17 10° E visible
15 Mar 4.2 05:31:17 10° N 05:36:59 90° W 05:42:32 10° S visible
16 Mar 7.4 03:40:20 10° NE 03:42:02 11° ENE 03:43:44 10° E visible
16 Mar 4.3 05:20:16 10° N 05:25:58 85° E 05:31:30 10° S visible
16 Mar 7.6 20:17:50 10° WNW 20:19:02 11° WNW 20:20:15 10° NW visible
